NOAA NWS Hourly Roundups by Site

Regional Weather Roundup for State College, PA

To Select Another Site Choose from List

Select Site:  

000
ASUS41 KCTP 221310
RWRCTP

REGIONAL WEATHER ROUNDUP
NATIONAL WEATHER SERVICE STATE COLLEGE PA
900 AM EDT THU APR 22 2021

Note: "fair" indicates few or no clouds below 12,000 feet with no
significant weather and/or obstructions to visibility.

* = STATION THAT DOES NOT REPORT PRECIPITATION /E.G. RAIN...SNOW...ETC/
    THUNDER OR FOG.

PAZ002>004-007>009-013>016-020>023-029>032-221400-
WESTERN PENNSYLVANIA

CITY           SKY/WX    TMP DP  RH WIND       PRES   REMARKS
ERIE           CLOUDY    36  20  52 NW14G29   30.02R
MEADVILLE      CLOUDY    31  22  69 W8        30.00R
FRANKLIN       MIX PCPN  32  26  78 VRB7      29.99S
NEW CASTLE     FAIR      34  23  64 NW10        N/A
BEAVER COUNTY  PTSUNNY   35  24  65 NW12G17   30.04R
BUTLER         PTSUNNY   34  25  69 W9        30.03R
PITTSBURGH INT MOSUNNY   34  22  61 W17G24    30.04R
PITTSBURGH     PTSUNNY   35  24  64 W8G20     30.03R
INDIANA*       CLOUDY    34  27  75 W13G20    30.02S
LATROBE        PTSUNNY   34  25  69 W9G20     30.03R
WASHINGTON CO* CLOUDY    34  26  72 W14G21    30.09R
$$

PAZ004>006-010>012-017>019-024>028-033>037-041-042-045-046-049>053-221400-
CENTRAL PENNSYLVANIA

CITY           SKY/WX    TMP DP  RH WIND       PRES   REMARKS
BRADFORD       CLOUDY    28  17  63 W12G20    29.90R
ST MARYS       CLOUDY    30  19  64 W13G25    29.95R
DUBOIS         MOSUNNY   32  20  61 NW14      29.94R
CLEARFIELD     MOSUNNY   32  20  61 NW12G21   29.95R
JOHNSTOWN      CLOUDY    29  21  72 W17G25    29.93R
SOMERSET       CLOUDY    28  21  74 W17G25    29.96S
ALTOONA        CLOUDY    33  22  63 NW18G25   29.96R
STATE COLLEGE  SUNNY     32  18  55 NW10G16   29.94R
REEDSVILLE       N/A    N/A N/A N/A MISG        N/A
WELLSBORO      CLOUDY    28  18  64 VRB5G16   29.86S
WILLIAMSPORT   SUNNY     36  17  46 W13G22    29.93S
SELINSGROVE    MOSUNNY   37  20  50 W9        29.96S
FT INDIANTOWN  PTSUNNY   39  17  39 W13G23    29.94S
CAPITAL CITY   CLOUDY    40  23  50 NW15      29.97R
HARRISBURG     MOSUNNY   40  23  50 NW22      29.96S
YORK           CLOUDY    38  24  57 W10G22    29.97R
$$

PAZ038>040-043-044-047-048-054-055-060>062-067>071-221400-
EASTERN PENNSYLVANIA

CITY           SKY/WX    TMP DP  RH WIND       PRES   REMARKS
TOWANDA        MOSUNNY   32  18  55 NW12G24   29.93S
SCRANTON       MOSUNNY   33  17  51 NW20G26   29.87S
MOUNT POCONO   PTSUNNY   29  15  56 W18G30    29.78R
HAZLETON       FAIR      32  18  55 W13G22    29.88R
LEHIGHTON      FAIR      36  19  51 W12G22    29.91S
ALLENTOWN      SUNNY     37  17  44 W13G21    29.90S
QN CITY/ALNTWN FAIR      36  18  48 W17G29    29.92S
QUAKERTOWN*    SUNNY     37  16  41 SW13G23   29.91S
PERKASIE*      SUNNY     36  16  44 NW14G24   29.91S
DOYLESTOWN     SUNNY     39  16  39 NW17G26   29.89F
READING        SUNNY     40  21  46 NW15G23   29.92S
LANCASTER      MOSUNNY   39  21  48 NW14      29.95F
COATESVILLE    SUNNY     37  21  52 W22       29.95S
WEST CHESTER   SUNNY     37  19  48 W14G22    29.94S
POTTSTOWN      SUNNY     38  19  46 W13G20    29.94F
BLUE BELL        N/A    N/A N/A N/A MISG        N/A
NORTH PHILA    SUNNY     39  19  44 W18G28    29.94S
PHILADELPHIA   MOSUNNY   40  18  41 W16G29    29.96R
$$


 

View Past Reports for State College, PA.

Products Courtesy of NOAA-NWS
NWS Information Parsing Script by Ken True at Saratoga Weather - Script by SE Lincoln Weather.